| time (UTC) | temp F | wind direction | speed MPH | gust MPH | rain 1hr in | rain 24hr in | rain mn in | humidity % | barometer mb |
| 20260904031715 | 88 | 170 | 4.0 | 6.0 | 0.00 | 0.00 | 0.00 | 50 | 1009.7 |
| 20260904025711 | 89 | 182 | 1.0 | 4.0 | 0.00 | 0.00 | 0.00 | 50 | 1009.4 |
| 20260904024711 | 89 | 246 | 2.0 | 4.0 | 0.00 | 0.00 | 0.00 | 50 | 1009.3 |
| 20260904023712 | 89 | 211 | 1.0 | 3.0 | 0.00 | 0.00 | 0.00 | 48 | 1009.0 |
| 20260904020717 | 89 | 227 | 2.0 | 4.0 | 0.00 | 0.00 | 0.00 | 45 | 1008.4 |
| 20260904015711 | 88 | 192 | 2.0 | 6.0 | 0.00 | 0.00 | 0.00 | 47 | 1008.5 |
| 20260904014711 | 86 | 234 | 4.0 | 13.0 | 0.00 | 0.00 | 0.00 | 54 | 1008.9 |
| 20260904013711 | 83 | 255 | 6.0 | 14.0 | 0.00 | 0.00 | 0.00 | 64 | 1009.4 |
| 20260904012712 | 85 | 254 | 7.0 | 21.0 | 0.00 | 0.00 | 0.00 | 61 | 1009.6 |
| 20260904011711 | 87 | 290 | 6.0 | 20.0 | 0.00 | 0.00 | 0.00 | 55 | 1009.6 |
| 20260904010711 | 91 | 299 | 1.0 | 9.0 | 0.00 | 0.00 | 0.00 | 47 | 1009.0 |
| 20260904005711 | 96 | 185 | 1.0 | 4.0 | 0.00 | 0.00 | 0.00 | 37 | 1008.6 |
| 20260904004715 | 96 | 157 | 1.0 | 3.0 | 0.00 | 0.00 | 0.00 | 37 | 1008.6 |
| 20260904003711 | 96 | 164 | 1.0 | 4.0 | 0.00 | 0.00 | 0.00 | 37 | 1008.3 |
| 20260904002710 | 97 | 156 | 2.0 | 3.0 | 0.00 | 0.00 | 0.00 | 37 | 1008.6 |
| 20260904001714 | 97 | 165 | 2.0 | 3.0 | 0.00 | 0.00 | 0.00 | 36 | 1008.3 |
| 20260904000711 | 97 | 62 | 0.0 | 6.0 | 0.00 | 0.00 | 0.00 | 36 | 1008.5 |
| 20260903234711 | 99 | 176 | 2.0 | 6.0 | 0.00 | 0.00 | 0.00 | 35 | 1008.6 |
| 20260903232711 | 100 | 153 | 3.0 | 6.0 | 0.00 | 0.00 | 0.00 | 34 | 1008.9 |
| 20260903231711 | 102 | 137 | 3.0 | 3.0 | 0.00 | 0.00 | 0.00 | 33 | 1008.7 |
| 20260903225712 | 101 | 123 | 2.0 | 9.0 | 0.00 | 0.00 | 0.00 | 33 | 1008.9 |
| 20260903224711 | 101 | 226 | 2.0 | 6.0 | 0.00 | 0.00 | 0.00 | 34 | 1009.2 |
| 20260903223711 | 100 | 67 | 2.0 | 7.0 | 0.00 | 0.00 | 0.00 | 35 | 1009.3 |
| 20260903222717 | 101 | 137 | 3.0 | 4.0 | 0.00 | 0.00 | 0.00 | 34 | 1009.4 |
| 20260903221711 | 100 | 67 | 2.0 | 9.0 | 0.00 | 0.00 | 0.00 | 35 | 1009.5 |
| 20260903220712 | 101 | 124 | 4.0 | 7.0 | 0.00 | 0.00 | 0.00 | 35 | 1009.8 |
| 20260903215711 | 100 | 159 | 4.0 | 6.0 | 0.00 | 0.00 | 0.00 | 35 | 1009.7 |
| 20260903214711 | 99 | 4 | 3.0 | 9.0 | 0.00 | 0.00 | 0.00 | 34 | 1009.7 |
| 20260903213711 | 101 | 214 | 3.0 | 5.0 | 0.00 | 0.00 | 0.00 | 34 | 1010.1 |
| 20260903212712 | 99 | 168 | 3.0 | 6.0 | 0.00 | 0.00 | 0.00 | 35 | 1010.3 |
| 20260903211711 | 100 | 178 | 3.0 | 6.0 | 0.00 | 0.00 | 0.00 | 34 | 1010.4 |
| 20260903210713 | 100 | 191 | 2.0 | 6.0 | 0.00 | 0.00 | 0.00 | 32 | 1010.5 |
| 20260903205711 | 98 | 305 | 3.0 | 10.0 | 0.00 | 0.00 | 0.00 | 34 | 1010.7 |
| 20260903204711 | 100 | 150 | 5.0 | 7.0 | 0.00 | 0.00 | 0.00 | 34 | 1010.6 |
| 20260903203717 | 98 | 224 | 2.0 | 8.0 | 0.00 | 0.00 | 0.00 | 38 | 1010.9 |
| 20260903202711 | 99 | 128 | 2.0 | 6.0 | 0.00 | 0.00 | 0.00 | 38 | 1011.2 |
| 20260903201711 | 97 | 155 | 3.0 | 11.0 | 0.00 | 0.00 | 0.00 | 39 | 1011.5 |
| 20260903200712 | 97 | 150 | 2.0 | 6.0 | 0.00 | 0.00 | 0.00 | 39 | 1011.5 |
| 20260903195711 | 98 | 216 | 1.0 | 8.0 | 0.00 | 0.00 | 0.00 | 38 | 1011.7 |
| 20260903194712 | 98 | 154 | 3.0 | 9.0 | 0.00 | 0.00 | 0.00 | 40 | 1011.8 |
| 20260903192712 | 97 | 150 | 6.0 | 7.0 | 0.00 | 0.00 | 0.00 | 39 | 1012.0 |
| 20260903191712 | 96 | 142 | 5.0 | 6.0 | 0.00 | 0.00 | 0.00 | 41 | 1012.2 |
| 20260903190712 | 94 | 201 | 0.0 | 8.0 | 0.00 | 0.00 | 0.00 | 43 | 1012.5 |
| 20260903185711 | 95 | 139 | 5.0 | 9.0 | 0.00 | 0.00 | 0.00 | 43 | 1012.6 |
| 20260903184711 | 96 | 224 | 4.0 | 6.0 | 0.00 | 0.00 | 0.00 | 42 | 1012.6 |
| 20260903183711 | 96 | 154 | 3.0 | 6.0 | 0.00 | 0.00 | 0.00 | 43 | 1012.8 |
| 20260903182711 | 96 | 152 | 3.0 | 6.0 | 0.00 | 0.00 | 0.00 | 43 | 1012.9 |
| 20260903181711 | 94 | 218 | 2.0 | 9.0 | 0.00 | 0.00 | 0.00 | 44 | 1013.4 |
| 20260903180711 | 93 | 210 | 0.0 | 7.0 | 0.00 | 0.00 | 0.00 | 45 | 1013.5 |
| 20260903175711 | 93 | 174 | 2.0 | 8.0 | 0.00 | 0.00 | 0.00 | 46 | 1013.3 |
| 20260903174711 | 93 | 269 | 0.0 | 6.0 | 0.00 | 0.00 | 0.00 | 45 | 1013.6 |
| 20260903173711 | 94 | 148 | 3.0 | 6.0 | 0.00 | 0.00 | 0.00 | 45 | 1013.8 |
| 20260903172711 | 92 | 184 | 2.0 | 8.0 | 0.00 | 0.00 | 0.00 | 48 | 1013.9 |
| 20260903171710 | 95 | 200 | 2.0 | 8.0 | 0.00 | 0.00 | 0.00 | 45 | 1013.6 |
| 20260903170712 | 93 | 154 | 4.0 | 6.0 | 0.00 | 0.00 | 0.00 | 46 | 1013.8 |
| 20260903164711 | 91 | 131 | 4.0 | 5.0 | 0.00 | 0.00 | 0.00 | 50 | 1013.9 |
| 20260903163711 | 91 | 147 | 0.0 | 7.0 | 0.00 | 0.00 | 0.00 | 50 | 1013.9 |
| 20260903162710 | 89 | 166 | 2.0 | 4.0 | 0.00 | 0.00 | 0.00 | 53 | 1013.9 |
| 20260903160713 | 86 | 165 | 2.0 | 6.0 | 0.00 | 0.00 | 0.00 | 59 | 1013.8 |
| 20260903155711 | 86 | 161 | 3.0 | 6.0 | 0.00 | 0.00 | 0.00 | 59 | 1014.0 |
| 20260903154711 | 87 | 156 | 2.0 | 6.0 | 0.00 | 0.00 | 0.00 | 57 | 1014.1 |
| 20260903153711 | 86 | 159 | 2.0 | 7.0 | 0.00 | 0.00 | 0.00 | 60 | 1014.3 |
| 20260903152711 | 86 | 188 | 2.0 | 4.0 | 0.00 | 0.00 | 0.00 | 60 | 1013.9 |
| 20260903151711 | 84 | 204 | 2.0 | 5.0 | 0.00 | 0.00 | 0.00 | 63 | 1013.9 |
| 20260903150711 | 84 | 167 | 2.0 | 4.0 | 0.00 | 0.00 | 0.00 | 65 | 1014.1 |
| 20260903145711 | 84 | 159 | 2.0 | 3.0 | 0.00 | 0.00 | 0.00 | 65 | 1014.0 |
| 20260903144711 | 82 | 215 | 2.0 | 3.0 | 0.00 | 0.00 | 0.00 | 67 | 1014.0 |
| 20260903143711 | 81 | 220 | 0.0 | 3.0 | 0.00 | 0.00 | 0.00 | 68 | 1013.8 |
| 20260903141711 | 81 | 213 | 3.0 | 3.0 | 0.00 | 0.00 | 0.00 | 69 | 1014.1 |
| 20260903135711 | 81 | 192 | 2.0 | 4.0 | 0.00 | 0.00 | 0.00 | 71 | 1013.8 |
| 20260903134710 | 81 | 170 | 2.0 | 4.0 | 0.00 | 0.00 | 0.00 | 72 | 1013.6 |
| 20260903133711 | 82 | 227 | 2.0 | 5.0 | 0.00 | 0.00 | 0.00 | 69 | 1013.4 |
| 20260903132711 | 82 | 257 | 1.0 | 5.0 | 0.00 | 0.00 | 0.00 | 68 | 1013.3 |
| 20260903131711 | 82 | 232 | 2.0 | 5.0 | 0.00 | 0.00 | 0.00 | 68 | 1013.0 |
| 20260903130712 | 82 | 226 | 2.0 | 4.0 | 0.00 | 0.00 | 0.00 | 68 | 1013.1 |
| 20260903125711 | 82 | 235 | 3.0 | 6.0 | 0.00 | 0.00 | 0.00 | 67 | 1013.0 |
| 20260903124711 | 82 | 232 | 2.0 | 8.0 | 0.00 | 0.00 | 0.00 | 67 | 1012.8 |
| 20260903123711 | 82 | 238 | 4.0 | 6.0 | 0.00 | 0.00 | 0.00 | 67 | 1012.8 |
| 20260903122710 | 82 | 238 | 2.0 | 4.0 | 0.00 | 0.00 | 0.00 | 66 | 1012.7 |
| 20260903121711 | 82 | 277 | 1.0 | 6.0 | 0.00 | 0.00 | 0.00 | 66 | 1012.5 |
| 20260903120711 | 82 | 214 | 4.0 | 5.0 | 0.00 | 0.00 | 0.00 | 66 | 1012.2 |
| 20260903113711 | 82 | 303 | 0.0 | 2.0 | 0.00 | 0.00 | 0.00 | 67 | 1012.1 |
| 20260903112711 | 82 | 218 | 1.0 | 3.0 | 0.00 | 0.00 | 0.00 | 66 | 1012.4 |
| 20260903111711 | 83 | 220 | 0.0 | 3.0 | 0.00 | 0.00 | 0.00 | 66 | 1012.1 |
| 20260903110711 | 83 | 209 | 2.0 | 3.0 | 0.00 | 0.00 | 0.00 | 66 | 1012.3 |
| 20260903105711 | 83 | 193 | 2.0 | 3.0 | 0.00 | 0.00 | 0.00 | 66 | 1012.0 |
| 20260903104711 | 83 | 201 | 1.0 | 3.0 | 0.00 | 0.00 | 0.00 | 65 | 1012.0 |
| 20260903103711 | 82 | 197 | 2.0 | 3.0 | 0.00 | 0.00 | 0.00 | 66 | 1012.1 |
| 20260903102710 | 82 | 189 | 2.0 | 2.0 | 0.00 | 0.00 | 0.00 | 66 | 1012.1 |
| 20260903095702 | 82 | 204 | 2.0 | 3.0 | 0.00 | 0.00 | 0.00 | 67 | 1012.3 |
| 20260903094703 | 82 | 197 | 2.0 | 4.0 | 0.00 | 0.00 | 0.00 | 65 | 1012.3 |
| 20260903093702 | 83 | 224 | 4.0 | 6.0 | 0.00 | 0.00 | 0.00 | 64 | 1012.0 |
| 20260903091703 | 83 | 233 | 2.0 | 6.0 | 0.00 | 0.00 | 0.00 | 64 | 1012.1 |
| 20260903090705 | 83 | 238 | 4.0 | 6.0 | 0.00 | 0.00 | 0.00 | 63 | 1012.2 |
| 20260903085703 | 83 | 210 | 1.0 | 6.0 | 0.00 | 0.00 | 0.00 | 63 | 1012.2 |
| 20260903084702 | 83 | 265 | 1.0 | 5.0 | 0.00 | 0.00 | 0.00 | 63 | 1012.0 |
| 20260903083702 | 83 | 239 | 2.0 | 4.0 | 0.00 | 0.00 | 0.00 | 63 | 1012.0 |
| 20260903082703 | 83 | 198 | 2.0 | 4.0 | 0.00 | 0.00 | 0.00 | 63 | 1012.2 |
| 20260903081702 | 83 | 227 | 1.0 | 4.0 | 0.00 | 0.00 | 0.00 | 62 | 1012.0 |
| 20260903075707 | 84 | 191 | 1.0 | 5.0 | 0.00 | 0.00 | 0.00 | 59 | 1012.3 |
| 20260903074702 | 85 | 219 | 2.0 | 4.0 | 0.00 | 0.00 | 0.00 | 58 | 1012.1 |
| 20260903073705 | 85 | 210 | 3.0 | 5.0 | 0.00 | 0.00 | 0.00 | 57 | 1012.2 |
| 20260903072702 | 85 | 229 | 2.0 | 6.0 | 0.00 | 0.00 | 0.00 | 57 | 1012.2 |
| 20260903071705 | 85 | 203 | 4.0 | 4.0 | 0.00 | 0.00 | 0.00 | 56 | 1012.2 |
| 20260903070704 | 85 | 182 | 2.0 | 4.0 | 0.00 | 0.00 | 0.00 | 56 | 1012.2 |
| 20260903064702 | 86 | 242 | 2.0 | 4.0 | 0.00 | 0.00 | 0.00 | 55 | 1012.3 |
| 20260903063702 | 87 | 141 | 2.0 | 4.0 | 0.00 | 0.00 | 0.00 | 54 | 1012.1 |
| 20260903062702 | 87 | 211 | 4.0 | 6.0 | 0.00 | 0.00 | 0.00 | 53 | 1012.0 |
| 20260903061702 | 87 | 245 | 3.0 | 6.0 | 0.00 | 0.00 | 0.00 | 54 | 1012.2 |
| 20260903060705 | 89 | 238 | 1.0 | 4.0 | 0.00 | 0.00 | 0.00 | 48 | 1011.7 |
| 20260903055703 | 89 | 263 | 3.0 | 4.0 | 0.00 | 0.00 | 0.00 | 48 | 1011.8 |
| 20260903054702 | 89 | 233 | 0.0 | 4.0 | 0.00 | 0.00 | 0.00 | 47 | 1011.6 |
| 20260903053703 | 89 | 246 | 2.0 | 3.0 | 0.00 | 0.00 | 0.00 | 48 | 1011.6 |
| 20260903052703 | 90 | 258 | 2.0 | 4.0 | 0.00 | 0.00 | 0.00 | 47 | 1011.6 |
| 20260903051702 | 90 | 267 | 2.0 | 5.0 | 0.00 | 0.00 | 0.00 | 47 | 1011.9 |
| 20260903050705 | 90 | 272 | 0.0 | 5.0 | 0.00 | 0.00 | 0.00 | 47 | 1011.7 |
| 20260903045703 | 91 | 285 | 3.0 | 5.0 | 0.00 | 0.00 | 0.00 | 46 | 1011.6 |
| 20260903044702 | 91 | 271 | 2.0 | 5.0 | 0.00 | 0.00 | 0.00 | 47 | 1011.8 |
| 20260903043703 | 91 | 267 | 1.0 | 5.0 | 0.00 | 0.00 | 0.00 | 47 | 1011.7 |
| 20260903042703 | 91 | 221 | 3.0 | 7.0 | 0.00 | 0.00 | 0.00 | 47 | 1011.8 |
| 20260903041702 | 90 | 294 | 0.0 | 11.0 | 0.00 | 0.00 | 0.00 | 47 | 1011.9 |
| 20260903040707 | 90 | 237 | 5.0 | 12.0 | 0.00 | 0.00 | 0.00 | 47 | 1011.9 |
| 20260903034702 | 93 | 239 | 4.0 | 8.0 | 0.00 | 0.00 | 0.00 | 41 | 1011.7 |